Hourly Weather Roundup
Issued by NWS Central Illinois

Home | Current Version | Previous Version | Text Only | Print | Product List | Glossary On
Versions: 1 2 3 4 5 6 7 8 9 10 11 12 13 14 15 16 17 18 19 20 21 22 23 24 25 26 27 28 29 30 31 32 33 34 35 36 37 38 39 40 41 42 43 44 45 46 47 48 49 50
588
NZUS43 KILX 250610
HWRILX

Area Weather Roundup
National Weather Service Lincoln IL
100 AM CDT TUE JUL 25 2017

NOTE:  "FAIR" indicates few or no clouds below 12,000 feet, with
       no sigificant weather and/or obstructions to visibility.


CITY           SKY/WX    TMP DP  RH WIND       PRES   REMARKS
Bloomington    CLEAR     62  59  90 E10       30.13R
6HR MIN TEMP:  62; 6HR MAX TEMP:  74;

Champaign      CLEAR     64  60  87 NE8       30.11R
6HR MIN TEMP:  64; 6HR MAX TEMP:  77;

Danville       CLEAR     62  61  97 NE5       30.08S
6HR MIN TEMP:  62; 6HR MAX TEMP:  74;

Decatur        CLEAR     64  62  93 E6        30.09S
6HR MIN TEMP:  64; 6HR MAX TEMP:  78;

Effingham      CLEAR     68  67  94 CALM      30.09S
6HR MIN TEMP:  68; 6HR MAX TEMP:  81;

Flora          CLEAR     72  68  86 NE7       30.07R
6HR MIN TEMP:  72; 6HR MAX TEMP:  86;

Galesburg      CLEAR     65  62  89 E3        30.12S
6HR MIN TEMP:  63; 6HR MAX TEMP:  72;

Jacksonville   CLEAR     66  64  94 CALM      30.09R
6HR MIN TEMP:  66; 6HR MAX TEMP:  78;

Lacon          CLEAR     62  60  93 E7        30.12R
6HR MIN TEMP:  62; 6HR MAX TEMP:  75;

Lawrenceville  CLEAR     71  67  87 NE7       30.07R
6HR MIN TEMP:  70; 6HR MAX TEMP:  83;

Litchfield     CLEAR     69  65  86 E8        30.08R
6HR MIN TEMP:  69; 6HR MAX TEMP:  80;

$$


CITY           SKY/WX    TMP DP  RH WIND       PRES   REMARKS
Lincoln        CLEAR     65  63  93 NE6       30.10R
6HR MIN TEMP:  64; 6HR MAX TEMP:  78;

Macomb         CLEAR     62  62  98 NE3       30.13R
6HR MIN TEMP:  62; 6HR MAX TEMP:  74;

Mattoon        CLEAR     66  64  93 NE3       30.09R
6HR MIN TEMP:  66; 6HR MAX TEMP:  79;

Mt Carmel AP   CLEAR     70  66  87 NE5       30.06S
6HR MIN TEMP:  70; 6HR MAX TEMP:  82;

Olney-Noble AP CLEAR     69  67  93 NE6       30.07S
Paris AP       CLEAR     64  63  97 NE5       30.11R
6HR MIN TEMP:  64; 6HR MAX TEMP:  78;

Peoria         CLEAR     67  62  84 E8        30.12R
6HR MIN TEMP:  67; 6HR MAX TEMP:  76;

Pontiac        CLEAR     60  59  97 NE5       30.14R
6HR MIN TEMP:  60; 6HR MAX TEMP:  74;

Rantoul        CLEAR     65  63  92 NE5       30.11S
6HR MIN TEMP:  65; 6HR MAX TEMP:  79;

Robinson       CLEAR     67  65  95 NE5       30.09R
6HR MIN TEMP:  66; 6HR MAX TEMP:  79;

Springfield    CLEAR     69  64  84 E7        30.09R
6HR MIN TEMP:  69; 6HR MAX TEMP:  80;

Taylorville    PTCLDY    67  64  87 E9        30.09R
6HR MIN TEMP:  67; 6HR MAX TEMP:  78;

$$

...REGIONAL REPORTS...


CITY           SKY/WX    TMP DP  RH WIND       PRES   REMARKS
Chicago O`Hare PTCLDY    66  59  78 NE5       30.13R
Kankakee       CLEAR     63  61  94 CALM      30.14R
Moline         CLEAR     63  59  87 E6        30.11R
Mount Sterling MOCLDY    66  64  94 E3        30.09R
Mount Vernon   CLEAR     72  68  87 NE5       30.06R
Pittsfield     CLEAR     69  67  93 NE5       30.10R
Quincy         CLEAR     69  65  86 E6        30.09R
Rockford       CLEAR     62  59  90 SE6       30.15R
$$


CITY           SKY/WX    TMP DP  RH WIND       PRES   REMARKS
Burlington     CLEAR     68  64  87 E6        30.10R
Cedar Rapids   CLEAR     61  61 100 E6        30.10R
Des Moines     CLEAR     71  65  81 SE12      30.05R
Kirksville     CLEAR     68  65  90 E6        30.10R
Ottumwa        CLEAR     66  64  93 SE7       30.09R
St Louis       CLEAR     77  67  71 E9        30.06R
$$


CITY           SKY/WX    TMP DP  RH WIND       PRES   REMARKS
Terre Haute    CLEAR     67  63  87 NE5       30.09R
Evansville     PTCLDY    72  68  87 NE7       30.05R
Indianapolis   CLEAR     68  58  70 E8        30.11R
Lafayette      CLEAR     64  60  87 E9        30.11R
Madison        CLOUDY    61  53  75 CALM      30.13R
Milwaukee      CLEAR     61  57  87 CALM      30.14R
$$






USA.gov is the U.S. government's official web portal to all federal, state and local government web resources and services.